| time (UTC) | temp F | wind direction | speed knots | gust knots | rain 1hr in | rain 24hr in | rain mn in | humidity % | barometer mb |
| 20260510120143 | 66 | 246 | 1.7 | 1.7 | 0.00 | 0.00 | 0.00 | 99 | 1022.5 |
| 20260510115639 | 66 | 162 | 0.9 | 1.7 | 0.00 | 0.00 | 0.00 | 99 | 1022.6 |
| 20260510115138 | 66 | 169 | 0.0 | 0.9 | 0.00 | 0.00 | 0.00 | 99 | 1022.3 |
| 20260510114633 | 65 | 132 | 0.0 | 0.9 | 0.00 | 0.00 | 0.00 | 99 | 1022.3 |
| 20260510114130 | 65 | 153 | 0.0 | 0.0 | 0.00 | 0.00 | 0.00 | 99 | 1021.9 |
| 20260510113625 | 65 | 152 | 0.9 | 0.9 | 0.00 | 0.00 | 0.00 | 99 | 1021.9 |
| 20260510113122 | 65 | 151 | 0.0 | 0.0 | 0.00 | 0.00 | 0.00 | 99 | 1021.8 |
| 20260510112619 | 65 | 151 | 0.0 | 0.0 | 0.00 | 0.00 | 0.00 | 99 | 1022.0 |
| 20260510112115 | 65 | 151 | 0.0 | 0.9 | 0.00 | 0.00 | 0.00 | 99 | 1021.9 |
| 20260510111612 | 65 | 145 | 0.0 | 0.0 | 0.00 | 0.00 | 0.00 | 99 | 1021.7 |
| 20260510111108 | 65 | 179 | 0.0 | 0.0 | 0.00 | 0.00 | 0.00 | 99 | 1021.6 |
| 20260510110604 | 65 | 179 | 0.0 | 0.9 | 0.00 | 0.00 | 0.00 | 99 | 1021.4 |
| 20260510110101 | 65 | 180 | 0.0 | 1.7 | 0.00 | 0.00 | 0.00 | 99 | 1021.5 |
| 20260510105556 | 65 | 180 | 1.7 | 1.7 | 0.00 | 0.00 | 0.00 | 99 | 1021.6 |
| 20260510105051 | 65 | 180 | 0.0 | 0.9 | 0.00 | 0.00 | 0.00 | 99 | 1021.5 |
| 20260510104548 | 65 | 181 | 0.9 | 1.7 | 0.00 | 0.00 | 0.00 | 99 | 1021.6 |
| 20260510104044 | 65 | 177 | 0.9 | 1.7 | 0.00 | 0.00 | 0.00 | 99 | 1021.6 |
| 20260510103542 | 64 | 176 | 0.0 | 0.0 | 0.00 | 0.00 | 0.00 | 99 | 1021.5 |
| 20260510103038 | 64 | 176 | 0.0 | 0.0 | 0.00 | 0.00 | 0.00 | 99 | 1021.2 |
| 20260510102533 | 65 | 176 | 0.0 | 0.0 | 0.00 | 0.00 | 0.00 | 99 | 1021.2 |
| 20260510102030 | 65 | 177 | 0.0 | 0.9 | 0.00 | 0.00 | 0.00 | 99 | 1021.3 |
| 20260510101528 | 65 | 177 | 0.0 | 0.0 | 0.00 | 0.00 | 0.00 | 99 | 1021.4 |
| 20260510101026 | 65 | 177 | 0.0 | 0.9 | 0.00 | 0.00 | 0.00 | 99 | 1021.1 |
| 20260510100522 | 65 | 177 | 0.0 | 0.0 | 0.00 | 0.00 | 0.00 | 99 | 1021.2 |
| 20260510100019 | 65 | 178 | 0.0 | 0.0 | 0.00 | 0.00 | 0.00 | 99 | 1021.2 |
| 20260510095515 | 65 | 184 | 1.7 | 1.7 | 0.00 | 0.00 | 0.00 | 99 | 1020.8 |
| 20260510095014 | 65 | 174 | 0.0 | 1.7 | 0.00 | 0.00 | 0.00 | 99 | 1021.1 |
| 20260510094508 | 65 | 171 | 0.9 | 0.9 | 0.00 | 0.00 | 0.00 | 99 | 1021.1 |
| 20260510094004 | 65 | 179 | 0.9 | 1.7 | 0.00 | 0.00 | 0.00 | 99 | 1021.0 |
| 20260510093500 | 65 | 199 | 0.9 | 1.7 | 0.00 | 0.00 | 0.00 | 99 | 1021.3 |
| 20260510092957 | 65 | 183 | 0.9 | 1.7 | 0.00 | 0.00 | 0.00 | 99 | 1021.0 |
| 20260510092449 | 65 | 178 | 0.9 | 1.7 | 0.00 | 0.00 | 0.00 | 99 | 1021.1 |
| 20260510091948 | 65 | 190 | 1.7 | 2.6 | 0.00 | 0.00 | 0.00 | 99 | 1021.3 |
| 20260510091445 | 65 | 181 | 0.9 | 1.7 | 0.00 | 0.00 | 0.00 | 99 | 1020.9 |
| 20260510090941 | 65 | 208 | 2.6 | 2.6 | 0.00 | 0.00 | 0.00 | 99 | 1021.2 |
| 20260510090438 | 65 | 192 | 1.7 | 2.6 | 0.00 | 0.00 | 0.00 | 98 | 1021.2 |
| 20260510085934 | 65 | 213 | 2.6 | 2.6 | 0.00 | 0.00 | 0.00 | 98 | 1020.9 |
| 20260510085429 | 65 | 196 | 1.7 | 1.7 | 0.00 | 0.00 | 0.00 | 98 | 1021.1 |
| 20260510084925 | 65 | 192 | 0.0 | 0.9 | 0.00 | 0.00 | 0.00 | 98 | 1020.7 |
| 20260510084422 | 65 | 193 | 1.7 | 1.7 | 0.00 | 0.00 | 0.00 | 98 | 1020.7 |
| 20260510083919 | 65 | 171 | 0.9 | 1.7 | 0.00 | 0.00 | 0.00 | 98 | 1020.6 |
| 20260510083415 | 65 | 169 | 0.0 | 0.0 | 0.00 | 0.00 | 0.00 | 98 | 1020.4 |
| 20260510082911 | 65 | 182 | 0.0 | 0.0 | 0.00 | 0.00 | 0.00 | 98 | 1020.4 |
| 20260510082409 | 65 | 182 | 0.9 | 0.9 | 0.00 | 0.00 | 0.00 | 98 | 1020.3 |
| 20260510081907 | 65 | 181 | 0.0 | 0.9 | 0.00 | 0.00 | 0.00 | 98 | 1019.9 |
| 20260510081403 | 65 | 181 | 0.0 | 0.0 | 0.00 | 0.00 | 0.00 | 98 | 1019.9 |
| 20260510080900 | 65 | 182 | 0.0 | 0.9 | 0.00 | 0.00 | 0.00 | 98 | 1019.9 |
| 20260510080354 | 65 | 181 | 0.0 | 0.9 | 0.00 | 0.00 | 0.00 | 98 | 1020.0 |
| 20260510075852 | 65 | 181 | 0.0 | 0.9 | 0.00 | 0.00 | 0.00 | 98 | 1020.1 |
| 20260510075349 | 66 | 182 | 0.9 | 0.9 | 0.00 | 0.00 | 0.00 | 98 | 1019.9 |
| 20260510074846 | 66 | 182 | 0.9 | 0.9 | 0.00 | 0.00 | 0.00 | 98 | 1020.2 |
| 20260510074343 | 66 | 179 | 0.0 | 0.0 | 0.00 | 0.00 | 0.00 | 98 | 1019.6 |
| 20260510073839 | 66 | 180 | 0.0 | 0.0 | 0.00 | 0.00 | 0.00 | 98 | 1019.6 |
| 20260510073335 | 66 | 185 | 1.7 | 1.7 | 0.00 | 0.00 | 0.00 | 98 | 1019.6 |
| 20260510072831 | 66 | 118 | 0.0 | 0.9 | 0.00 | 0.00 | 0.00 | 97 | 1019.5 |
| 20260510072328 | 66 | 138 | 0.9 | 0.9 | 0.00 | 0.00 | 0.00 | 97 | 1019.5 |
| 20260510071824 | 66 | 174 | 0.9 | 0.9 | 0.00 | 0.00 | 0.00 | 97 | 1019.6 |
| 20260510071320 | 66 | 171 | 0.0 | 0.0 | 0.00 | 0.00 | 0.00 | 97 | 1019.8 |
| 20260510070820 | 66 | 171 | 0.0 | 0.0 | 0.00 | 0.00 | 0.00 | 97 | 1019.6 |
| 20260510070311 | 66 | 172 | 0.0 | 0.0 | 0.00 | 0.00 | 0.00 | 97 | 1019.6 |
| 20260510065810 | 66 | 171 | 0.9 | 0.9 | 0.00 | 0.00 | 0.00 | 97 | 1019.9 |
| 20260510065307 | 66 | 177 | 0.9 | 1.7 | 0.00 | 0.00 | 0.00 | 97 | 1019.7 |
| 20260510064804 | 66 | 176 | 0.0 | 0.9 | 0.00 | 0.00 | 0.00 | 97 | 1019.5 |
| 20260510064302 | 66 | 196 | 1.7 | 1.7 | 0.00 | 0.00 | 0.00 | 97 | 1019.7 |
| 20260510063757 | 66 | 169 | 0.0 | 0.0 | 0.00 | 0.00 | 0.00 | 97 | 1019.5 |
| 20260510063254 | 66 | 170 | 0.0 | 1.7 | 0.00 | 0.00 | 0.00 | 97 | 1019.5 |
| 20260510062751 | 66 | 188 | 0.9 | 1.7 | 0.00 | 0.00 | 0.00 | 97 | 1019.7 |
| 20260510062246 | 66 | 201 | 1.7 | 2.6 | 0.00 | 0.00 | 0.00 | 97 | 1019.8 |
| 20260510061742 | 66 | 209 | 2.6 | 5.2 | 0.00 | 0.00 | 0.00 | 97 | 1020.0 |
| 20260510061239 | 66 | 176 | 2.6 | 2.6 | 0.00 | 0.00 | 0.00 | 97 | 1020.1 |
| 20260510060735 | 66 | 170 | 1.7 | 1.7 | 0.00 | 0.00 | 0.00 | 97 | 1020.2 |
| 20260510060232 | 66 | 194 | 0.9 | 1.7 | 0.00 | 0.00 | 0.00 | 97 | 1020.3 |
| 20260510055729 | 66 | 174 | 0.9 | 1.7 | 0.00 | 0.00 | 0.00 | 97 | 1020.4 |
| 20260510055227 | 66 | 192 | 0.9 | 1.7 | 0.00 | 0.00 | 0.00 | 97 | 1020.0 |
| 20260510054727 | 66 | 212 | 1.7 | 1.7 | 0.00 | 0.00 | 0.00 | 97 | 1020.1 |
| 20260510054223 | 66 | 176 | 0.9 | 2.6 | 0.00 | 0.00 | 0.00 | 97 | 1020.1 |
| 20260510053722 | 66 | 173 | 0.9 | 0.9 | 0.00 | 0.00 | 0.00 | 97 | 1020.2 |
| 20260510053219 | 66 | 185 | 0.9 | 1.7 | 0.00 | 0.00 | 0.00 | 97 | 1019.8 |
| 20260510052715 | 66 | 172 | 0.0 | 1.7 | 0.00 | 0.00 | 0.00 | 97 | 1020.1 |
| 20260510052211 | 66 | 174 | 0.9 | 1.7 | 0.00 | 0.00 | 0.00 | 97 | 1020.0 |
| 20260510051707 | 66 | 213 | 1.7 | 2.6 | 0.00 | 0.00 | 0.00 | 97 | 1020.3 |
| 20260510051204 | 66 | 181 | 0.9 | 1.7 | 0.00 | 0.00 | 0.00 | 97 | 1020.2 |
| 20260510050701 | 66 | 203 | 1.7 | 2.6 | 0.00 | 0.00 | 0.00 | 97 | 1020.4 |
| 20260510050158 | 66 | 184 | 0.9 | 2.6 | 0.00 | 0.00 | 0.00 | 97 | 1020.3 |
| 20260510045655 | 66 | 184 | 0.9 | 1.7 | 0.00 | 0.00 | 0.00 | 97 | 1020.1 |
| 20260510045152 | 66 | 184 | 0.9 | 1.7 | 0.00 | 0.00 | 0.00 | 97 | 1020.1 |
| 20260510044648 | 66 | 214 | 1.7 | 2.6 | 0.00 | 0.00 | 0.00 | 97 | 1020.7 |
| 20260510044145 | 66 | 195 | 1.7 | 2.6 | 0.00 | 0.00 | 0.00 | 97 | 1020.7 |
| 20260510043641 | 66 | 228 | 2.6 | 2.6 | 0.00 | 0.00 | 0.00 | 97 | 1020.5 |
| 20260510043137 | 66 | 171 | 0.9 | 1.7 | 0.00 | 0.00 | 0.00 | 97 | 1020.3 |
| 20260510042635 | 66 | 232 | 2.6 | 4.3 | 0.00 | 0.00 | 0.00 | 97 | 1020.4 |
| 20260510042131 | 66 | 197 | 1.7 | 4.3 | 0.00 | 0.00 | 0.00 | 97 | 1020.5 |
| 20260510041628 | 66 | 201 | 0.9 | 1.7 | 0.00 | 0.00 | 0.00 | 97 | 1020.5 |
| 20260510041125 | 66 | 188 | 1.7 | 2.6 | 0.00 | 0.00 | 0.00 | 97 | 1020.4 |
| 20260510040623 | 66 | 236 | 1.7 | 1.7 | 0.00 | 0.00 | 0.00 | 97 | 1020.6 |
| 20260510040119 | 66 | 178 | 0.9 | 0.9 | 0.00 | 0.00 | 0.00 | 97 | 1020.3 |
| 20260510035615 | 66 | 170 | 0.0 | 0.9 | 0.00 | 0.00 | 0.00 | 96 | 1020.3 |
| 20260510035114 | 66 | 167 | 0.0 | 0.9 | 0.00 | 0.00 | 0.00 | 96 | 1020.3 |
| 20260510034612 | 66 | 182 | 0.9 | 1.7 | 0.00 | 0.00 | 0.00 | 96 | 1020.3 |
| 20260510034109 | 66 | 207 | 1.7 | 2.6 | 0.00 | 0.00 | 0.00 | 96 | 1020.4 |
| 20260510033606 | 66 | 167 | 0.9 | 0.9 | 0.00 | 0.00 | 0.00 | 96 | 1020.4 |
| 20260510033103 | 66 | 189 | 0.9 | 0.9 | 0.00 | 0.00 | 0.00 | 96 | 1020.3 |
| 20260510032559 | 66 | 180 | 0.9 | 2.6 | 0.00 | 0.00 | 0.00 | 96 | 1020.1 |
| 20260510032055 | 66 | 196 | 1.7 | 1.7 | 0.00 | 0.00 | 0.00 | 96 | 1020.1 |
| 20260510031550 | 66 | 203 | 1.7 | 1.7 | 0.00 | 0.00 | 0.00 | 96 | 1019.8 |
| 20260510031046 | 66 | 171 | 0.9 | 1.7 | 0.00 | 0.00 | 0.00 | 96 | 1019.8 |
| 20260510030542 | 66 | 177 | 0.9 | 1.7 | 0.00 | 0.00 | 0.00 | 96 | 1020.0 |
| 20260510030040 | 66 | 174 | 0.0 | 1.7 | 0.00 | 0.00 | 0.00 | 96 | 1020.0 |
| 20260510025537 | 66 | 181 | 1.7 | 1.7 | 0.00 | 0.00 | 0.00 | 96 | 1020.1 |
| 20260510025035 | 66 | 192 | 0.9 | 1.7 | 0.00 | 0.00 | 0.00 | 95 | 1020.2 |
| 20260510024531 | 66 | 183 | 0.9 | 2.6 | 0.00 | 0.00 | 0.00 | 95 | 1020.2 |
| 20260510024027 | 66 | 183 | 0.9 | 1.7 | 0.00 | 0.00 | 0.00 | 95 | 1020.5 |
| 20260510023523 | 67 | 183 | 0.9 | 1.7 | 0.00 | 0.00 | 0.00 | 95 | 1020.3 |
| 20260510023020 | 67 | 174 | 0.9 | 0.9 | 0.00 | 0.00 | 0.00 | 95 | 1020.1 |
| 20260510022519 | 67 | 173 | 0.0 | 0.9 | 0.00 | 0.00 | 0.00 | 95 | 1020.2 |
| 20260510022014 | 67 | 174 | 0.0 | 0.9 | 0.00 | 0.00 | 0.00 | 95 | 1020.2 |
| 20260510021511 | 67 | 174 | 0.9 | 1.7 | 0.00 | 0.00 | 0.00 | 95 | 1020.3 |
| 20260510021009 | 67 | 188 | 1.7 | 1.7 | 0.00 | 0.00 | 0.00 | 94 | 1020.0 |
| 20260510020503 | 67 | 174 | 0.0 | 1.7 | 0.00 | 0.00 | 0.00 | 94 | 1020.2 |
| 20260510015958 | 67 | 174 | 0.0 | 1.7 | 0.00 | 0.00 | 0.00 | 94 | 1020.3 |
| 20260510015454 | 67 | 172 | 0.0 | 0.9 | 0.00 | 0.00 | 0.00 | 94 | 1020.1 |
| 20260510014949 | 67 | 178 | 0.9 | 1.7 | 0.00 | 0.00 | 0.00 | 94 | 1019.8 |
| 20260510014447 | 67 | 186 | 0.9 | 1.7 | 0.00 | 0.00 | 0.00 | 93 | 1020.0 |
| 20260510013944 | 67 | 217 | 1.7 | 2.6 | 0.00 | 0.00 | 0.00 | 93 | 1019.9 |
| 20260510013433 | 68 | 183 | 1.7 | 4.3 | 0.00 | 0.00 | 0.00 | 93 | 1019.7 |
| 20260510012929 | 68 | 179 | 1.7 | 2.6 | 0.00 | 0.00 | 0.00 | 93 | 1019.6 |
| 20260510012424 | 68 | 206 | 1.7 | 4.3 | 0.00 | 0.00 | 0.00 | 93 | 1019.5 |
| 20260510011919 | 68 | 182 | 0.9 | 4.3 | 0.00 | 0.00 | 0.00 | 92 | 1019.4 |
| 20260510011414 | 68 | 205 | 2.6 | 5.2 | 0.00 | 0.00 | 0.00 | 92 | 1019.5 |
| 20260510010910 | 68 | 231 | 1.7 | 2.6 | 0.00 | 0.00 | 0.00 | 92 | 1019.3 |
| 20260510010408 | 68 | 189 | 0.9 | 1.7 | 0.00 | 0.00 | 0.00 | 92 | 1019.2 |
| 20260510005904 | 68 | 194 | 1.7 | 2.6 | 0.00 | 0.00 | 0.00 | 91 | 1019.3 |
| 20260510005401 | 68 | 185 | 0.9 | 2.6 | 0.00 | 0.00 | 0.00 | 91 | 1019.4 |
| 20260510004858 | 68 | 181 | 0.9 | 1.7 | 0.00 | 0.00 | 0.00 | 91 | 1019.1 |
| 20260510004355 | 68 | 180 | 1.7 | 1.7 | 0.00 | 0.00 | 0.00 | 91 | 1018.9 |
| 20260510003853 | 69 | 200 | 2.6 | 2.6 | 0.00 | 0.00 | 0.00 | 90 | 1018.9 |
| 20260510003350 | 69 | 172 | 1.7 | 1.7 | 0.00 | 0.00 | 0.00 | 90 | 1018.6 |
| 20260510002848 | 69 | 181 | 0.9 | 0.9 | 0.00 | 0.00 | 0.00 | 89 | 1018.6 |
| 20260510002346 | 69 | 248 | 0.9 | 2.6 | 0.00 | 0.00 | 0.00 | 89 | 1018.9 |
| 20260510001843 | 69 | 174 | 0.9 | 0.9 | 0.00 | 0.00 | 0.00 | 88 | 1018.7 |
| 20260510001341 | 69 | 197 | 2.6 | 2.6 | 0.00 | 0.00 | 0.00 | 88 | 1018.5 |
| 20260510000837 | 70 | 177 | 0.0 | 1.7 | 0.00 | 0.00 | 0.00 | 88 | 1018.6 |
| 20260510000334 | 70 | 181 | 0.9 | 0.9 | 0.00 | 0.00 | 0.00 | 87 | 1018.6 |
| 20260509235831 | 70 | 211 | 0.9 | 2.6 | 0.00 | 0.00 | 0.00 | 87 | 1018.7 |
| 20260509235327 | 70 | 219 | 2.6 | 2.6 | 0.00 | 0.00 | 0.00 | 87 | 1018.8 |
| 20260509234823 | 70 | 177 | 0.0 | 1.7 | 0.00 | 0.00 | 0.00 | 87 | 1018.6 |
| 20260509234320 | 70 | 252 | 2.6 | 4.3 | 0.00 | 0.00 | 0.00 | 86 | 1018.2 |
| 20260509233818 | 70 | 222 | 2.6 | 5.2 | 0.00 | 0.00 | 0.00 | 86 | 1018.5 |
| 20260509233316 | 70 | 253 | 3.5 | 6.1 | 0.00 | 0.00 | 0.00 | 86 | 1018.5 |
| 20260509232811 | 70 | 221 | 1.7 | 4.3 | 0.00 | 0.00 | 0.00 | 86 | 1018.6 |
| 20260509232309 | 71 | 242 | 1.7 | 5.2 | 0.00 | 0.00 | 0.00 | 86 | 1018.7 |
| 20260509231805 | 71 | 165 | 0.9 | 2.6 | 0.00 | 0.00 | 0.00 | 86 | 1018.5 |
| 20260509231302 | 71 | 227 | 2.6 | 6.1 | 0.00 | 0.00 | 0.00 | 86 | 1018.3 |
| 20260509230800 | 71 | 292 | 2.6 | 2.6 | 0.00 | 0.00 | 0.00 | 85 | 1018.2 |
| 20260509230257 | 71 | 192 | 0.9 | 2.6 | 0.00 | 0.00 | 0.00 | 85 | 1018.2 |
| 20260509225751 | 71 | 218 | 1.7 | 2.6 | 0.00 | 0.00 | 0.00 | 85 | 1018.1 |
| 20260509225248 | 71 | 204 | 1.7 | 6.1 | 0.00 | 0.00 | 0.00 | 85 | 1018.1 |
| 20260509224744 | 71 | 222 | 2.6 | 4.3 | 0.00 | 0.00 | 0.00 | 84 | 1018.3 |
| 20260509224241 | 71 | 249 | 2.6 | 2.6 | 0.00 | 0.00 | 0.00 | 84 | 1018.2 |
| 20260509223738 | 71 | 228 | 1.7 | 1.7 | 0.00 | 0.00 | 0.00 | 84 | 1017.9 |
| 20260509223235 | 71 | 189 | 0.9 | 2.6 | 0.00 | 0.00 | 0.00 | 83 | 1018.4 |
| 20260509222732 | 71 | 281 | 2.6 | 7.0 | 0.00 | 0.00 | 0.00 | 83 | 1017.9 |
| 20260509222227 | 71 | 218 | 2.6 | 4.3 | 0.00 | 0.00 | 0.00 | 83 | 1018.4 |
| 20260509221723 | 72 | 261 | 4.3 | 6.1 | 0.00 | 0.00 | 0.00 | 82 | 1018.1 |
| 20260509221219 | 72 | 197 | 2.6 | 5.2 | 0.00 | 0.00 | 0.00 | 82 | 1018.1 |
| 20260509220715 | 72 | 240 | 4.3 | 7.8 | 0.00 | 0.00 | 0.00 | 82 | 1018.1 |
| 20260509220212 | 72 | 227 | 4.3 | 6.1 | 0.00 | 0.00 | 0.00 | 81 | 1018.0 |
| 20260509215707 | 72 | 222 | 3.5 | 5.2 | 0.00 | 0.00 | 0.00 | 81 | 1018.2 |
| 20260509215204 | 72 | 229 | 3.5 | 4.3 | 0.00 | 0.00 | 0.00 | 81 | 1018.1 |
| 20260509214702 | 72 | 237 | 1.7 | 5.2 | 0.00 | 0.00 | 0.00 | 80 | 1017.9 |
| 20260509214159 | 72 | 267 | 2.6 | 4.3 | 0.00 | 0.00 | 0.00 | 80 | 1017.9 |
| 20260509213655 | 72 | 236 | 2.6 | 5.2 | 0.00 | 0.00 | 0.00 | 81 | 1017.9 |
| 20260509213151 | 72 | 205 | 6.1 | 7.0 | 0.00 | 0.00 | 0.00 | 81 | 1017.9 |
| 20260509212648 | 72 | 285 | 3.5 | 6.1 | 0.00 | 0.00 | 0.00 | 81 | 1018.0 |
| 20260509212145 | 73 | 249 | 4.3 | 6.1 | 0.00 | 0.00 | 0.00 | 80 | 1018.0 |
| 20260509211641 | 72 | 243 | 1.7 | 6.1 | 0.00 | 0.00 | 0.00 | 80 | 1018.3 |
| 20260509211137 | 73 | 241 | 2.6 | 6.1 | 0.00 | 0.00 | 0.00 | 80 | 1018.2 |
| 20260509210634 | 73 | 254 | 3.5 | 5.2 | 0.00 | 0.00 | 0.00 | 81 | 1018.1 |
| 20260509210131 | 73 | 227 | 1.7 | 5.2 | 0.00 | 0.00 | 0.00 | 83 | 1018.3 |
| 20260509205626 | 72 | 330 | 1.7 | 4.3 | 0.00 | 0.00 | 0.00 | 84 | 1018.0 |
| 20260509205120 | 71 | 233 | 3.5 | 4.3 | 0.00 | 0.00 | 0.00 | 84 | 1018.1 |
| 20260509204617 | 72 | 220 | 2.6 | 5.2 | 0.00 | 0.00 | 0.00 | 84 | 1018.2 |
| 20260509204108 | 72 | 269 | 4.3 | 6.1 | 0.00 | 0.00 | 0.00 | 84 | 1018.2 |
| 20260509203604 | 71 | 234 | 2.6 | 5.2 | 0.00 | 0.00 | 0.00 | 85 | 1018.4 |
| 20260509203103 | 71 | 188 | 4.3 | 5.2 | 0.00 | 0.00 | 0.00 | 85 | 1018.4 |
| 20260509202556 | 72 | 205 | 1.7 | 6.1 | 0.00 | 0.00 | 0.00 | 84 | 1018.5 |
| 20260509202052 | 71 | 244 | 2.6 | 4.3 | 0.00 | 0.00 | 0.00 | 84 | 1018.5 |
| 20260509201547 | 72 | 247 | 3.5 | 4.3 | 0.00 | 0.00 | 0.00 | 85 | 1018.5 |
| 20260509201045 | 72 | 73 | 1.7 | 5.2 | 0.00 | 0.00 | 0.00 | 85 | 1018.6 |
| 20260509200539 | 71 | 201 | 0.9 | 2.6 | 0.00 | 0.00 | 0.00 | 85 | 1018.5 |
| 20260509200036 | 72 | 233 | 1.7 | 2.6 | 0.00 | 0.00 | 0.00 | 85 | 1018.4 |
| 20260509195531 | 71 | 198 | 0.9 | 4.3 | 0.00 | 0.00 | 0.00 | 85 | 1018.5 |
| 20260509195026 | 71 | 284 | 3.5 | 4.3 | 0.00 | 0.00 | 0.00 | 85 | 1018.6 |
| 20260509194521 | 72 | 185 | 0.9 | 1.7 | 0.00 | 0.00 | 0.00 | 84 | 1018.5 |
| 20260509194018 | 72 | 186 | 1.7 | 2.6 | 0.00 | 0.00 | 0.00 | 84 | 1018.5 |
| 20260509193513 | 71 | 96 | 0.9 | 2.6 | 0.00 | 0.00 | 0.00 | 84 | 1018.7 |
| 20260509193010 | 72 | 296 | 2.6 | 2.6 | 0.00 | 0.00 | 0.00 | 84 | 1018.7 |
| 20260509192506 | 72 | 176 | 0.9 | 2.6 | 0.00 | 0.00 | 0.00 | 84 | 1018.7 |
| 20260509192001 | 72 | 243 | 0.9 | 1.7 | 0.00 | 0.00 | 0.00 | 84 | 1018.8 |
| 20260509191456 | 71 | 194 | 0.9 | 4.3 | 0.00 | 0.00 | 0.00 | 84 | 1018.8 |
| 20260509190952 | 71 | 273 | 2.6 | 4.3 | 0.00 | 0.00 | 0.00 | 83 | 1019.1 |
| 20260509190449 | 72 | 180 | 1.7 | 5.2 | 0.00 | 0.00 | 0.00 | 83 | 1019.2 |
| 20260509185946 | 72 | 264 | 5.2 | 7.0 | 0.00 | 0.00 | 0.00 | 82 | 1019.6 |
| 20260509185438 | 72 | 199 | 1.7 | 2.6 | 0.00 | 0.00 | 0.00 | 83 | 1019.2 |
| 20260509184934 | 72 | 278 | 3.5 | 5.2 | 0.00 | 0.00 | 0.00 | 82 | 1019.4 |
| 20260509184432 | 72 | 133 | 0.9 | 4.3 | 0.00 | 0.00 | 0.00 | 82 | 1019.6 |
| 20260509183928 | 72 | 260 | 4.3 | 5.2 | 0.00 | 0.00 | 0.00 | 82 | 1019.6 |
| 20260509183423 | 72 | 236 | 2.6 | 6.1 | 0.00 | 0.00 | 0.00 | 83 | 1019.8 |
| 20260509182920 | 72 | 331 | 2.6 | 4.3 | 0.00 | 0.00 | 0.00 | 83 | 1019.4 |
| 20260509182417 | 72 | 283 | 2.6 | 2.6 | 0.00 | 0.00 | 0.00 | 82 | 1019.7 |
| 20260509181914 | 72 | 263 | 3.5 | 4.3 | 0.00 | 0.00 | 0.00 | 82 | 1019.8 |
| 20260509181412 | 72 | 312 | 3.5 | 4.3 | 0.00 | 0.00 | 0.00 | 81 | 1019.9 |
| 20260509180909 | 73 | 272 | 1.7 | 2.6 | 0.00 | 0.00 | 0.00 | 81 | 1019.5 |
| 20260509180404 | 73 | 294 | 1.7 | 2.6 | 0.00 | 0.00 | 0.00 | 80 | 1019.6 |
| 20260509175901 | 73 | 224 | 5.2 | 6.1 | 0.00 | 0.00 | 0.00 | 79 | 1019.8 |
| 20260509175357 | 73 | 210 | 0.9 | 2.6 | 0.00 | 0.00 | 0.00 | 79 | 1020.2 |
| 20260509174853 | 73 | 10 | 3.5 | 6.1 | 0.00 | 0.00 | 0.00 | 78 | 1020.1 |
| 20260509174349 | 73 | 181 | 1.7 | 6.1 | 0.00 | 0.00 | 0.00 | 78 | 1019.9 |
| 20260509173845 | 73 | 184 | 0.9 | 5.2 | 0.00 | 0.00 | 0.00 | 78 | 1019.3 |
| 20260509173340 | 73 | 232 | 4.3 | 7.8 | 0.00 | 0.00 | 0.00 | 77 | 1018.9 |
| 20260509172837 | 73 | 252 | 2.6 | 6.1 | 0.00 | 0.00 | 0.00 | 79 | 1018.6 |
| 20260509172334 | 73 | 227 | 3.5 | 6.1 | 0.00 | 0.00 | 0.00 | 80 | 1018.4 |
| 20260509171830 | 72 | 199 | 7.0 | 8.7 | 0.00 | 0.00 | 0.00 | 81 | 1018.4 |
| 20260509171325 | 72 | 189 | 4.3 | 7.8 | 0.00 | 0.00 | 0.00 | 82 | 1018.8 |
| 20260509170822 | 72 | 216 | 3.5 | 5.2 | 0.00 | 0.00 | 0.00 | 83 | 1018.6 |
| 20260509170318 | 73 | 201 | 5.2 | 7.0 | 0.00 | 0.00 | 0.00 | 82 | 1018.5 |
| 20260509165818 | 74 | 188 | 4.3 | 5.2 | 0.00 | 0.00 | 0.00 | 81 | 1018.7 |
| 20260509165313 | 74 | 227 | 3.5 | 6.1 | 0.00 | 0.00 | 0.00 | 79 | 1019.0 |
| 20260509164809 | 74 | 250 | 4.3 | 5.2 | 0.00 | 0.00 | 0.00 | 76 | 1019.4 |
| 20260509164305 | 73 | 225 | 2.6 | 4.3 | 0.00 | 0.00 | 0.00 | 77 | 1019.3 |
| 20260509163801 | 73 | 246 | 2.6 | 6.1 | 0.00 | 0.00 | 0.00 | 78 | 1019.5 |
| 20260509163258 | 73 | 17 | 6.1 | 7.0 | 0.00 | 0.00 | 0.00 | 79 | 1019.6 |
| 20260509162757 | 74 | 184 | 1.7 | 1.7 | 0.00 | 0.00 | 0.00 | 82 | 1019.4 |
| 20260509162251 | 73 | 251 | 1.7 | 2.6 | 0.00 | 0.00 | 0.00 | 81 | 1019.2 |
| 20260509161747 | 73 | 302 | 3.5 | 5.2 | 0.00 | 0.00 | 0.00 | 81 | 1019.4 |
| 20260509161243 | 73 | 269 | 2.6 | 4.3 | 0.00 | 0.00 | 0.00 | 82 | 1019.5 |
| 20260509160739 | 73 | 238 | 2.6 | 4.3 | 0.00 | 0.00 | 0.00 | 81 | 1019.6 |
| 20260509160235 | 73 | 223 | 1.7 | 5.2 | 0.00 | 0.00 | 0.00 | 82 | 1019.5 |
| 20260509155730 | 73 | 231 | 2.6 | 7.0 | 0.00 | 0.00 | 0.00 | 83 | 1019.4 |
| 20260509155227 | 72 | 257 | 3.5 | 6.1 | 0.00 | 0.00 | 0.00 | 83 | 1019.4 |
| 20260509154723 | 73 | 304 | 2.6 | 4.3 | 0.00 | 0.00 | 0.00 | 82 | 1019.5 |
| 20260509154220 | 73 | 274 | 3.5 | 6.1 | 0.00 | 0.00 | 0.00 | 81 | 1019.4 |
| 20260509153717 | 73 | 264 | 2.6 | 7.0 | 0.00 | 0.00 | 0.00 | 81 | 1019.4 |
| 20260509153213 | 73 | 281 | 2.6 | 8.7 | 0.00 | 0.00 | 0.00 | 81 | 1019.1 |
| 20260509152709 | 74 | 207 | 4.3 | 7.0 | 0.00 | 0.00 | 0.00 | 80 | 1019.0 |
| 20260509152207 | 74 | 202 | 2.6 | 7.8 | 0.00 | 0.00 | 0.00 | 79 | 1019.1 |
| 20260509151704 | 74 | 269 | 3.5 | 6.1 | 0.00 | 0.00 | 0.00 | 79 | 1019.1 |
| 20260509151200 | 74 | 280 | 5.2 | 8.7 | 0.00 | 0.00 | 0.00 | 78 | 1019.1 |
| 20260509150658 | 74 | 243 | 5.2 | 7.0 | 0.00 | 0.00 | 0.00 | 78 | 1018.9 |
| 20260509150156 | 74 | 186 | 5.2 | 6.1 | 0.00 | 0.00 | 0.00 | 80 | 1019.4 |
| 20260509145652 | 74 | 234 | 4.3 | 8.7 | 0.00 | 0.00 | 0.00 | 80 | 1019.5 |
| 20260509145147 | 74 | 259 | 4.3 | 5.2 | 0.00 | 0.00 | 0.00 | 79 | 1019.5 |
| 20260509144644 | 75 | 308 | 3.5 | 4.3 | 0.00 | 0.00 | 0.00 | 81 | 1019.5 |
| 20260509144142 | 73 | 178 | 1.7 | 2.6 | 0.00 | 0.00 | 0.00 | 82 | 1019.6 |
| 20260509143638 | 73 | 271 | 4.3 | 7.0 | 0.00 | 0.00 | 0.00 | 82 | 1019.8 |
| 20260509143136 | 73 | 173 | 1.7 | 7.0 | 0.00 | 0.00 | 0.00 | 82 | 1019.8 |
| 20260509142631 | 73 | 225 | 7.0 | 9.6 | 0.00 | 0.00 | 0.00 | 82 | 1019.9 |
| 20260509142128 | 73 | 177 | 1.7 | 7.0 | 0.00 | 0.00 | 0.00 | 84 | 1019.7 |
| 20260509141624 | 73 | 195 | 9.6 | 12.2 | 0.00 | 0.00 | 0.00 | 84 | 1020.0 |
| 20260509141120 | 71 | 204 | 2.6 | 7.0 | 0.00 | 0.00 | 0.00 | 87 | 1020.0 |
| 20260509140617 | 70 | 292 | 3.5 | 6.1 | 0.00 | 0.00 | 0.00 | 90 | 1019.9 |
| 20260509140116 | 69 | 246 | 4.3 | 7.0 | 0.00 | 0.00 | 0.00 | 92 | 1020.0 |
| 20260509135612 | 69 | 254 | 4.3 | 6.1 | 0.00 | 0.00 | 0.00 | 94 | 1019.9 |
| 20260509135111 | 68 | 200 | 1.7 | 6.1 | 0.00 | 0.00 | 0.00 | 96 | 1020.0 |
| 20260509134607 | 68 | 189 | 1.7 | 7.0 | 0.00 | 0.00 | 0.00 | 96 | 1020.0 |
| 20260509134104 | 68 | 209 | 0.9 | 2.6 | 0.00 | 0.00 | 0.00 | 97 | 1019.9 |
| 20260509133601 | 68 | 221 | 0.9 | 2.6 | 0.00 | 0.00 | 0.00 | 97 | 1020.0 |
| 20260509133059 | 67 | 221 | 2.6 | 5.2 | 0.00 | 0.00 | 0.00 | 98 | 1019.9 |
| 20260509132557 | 66 | 203 | 1.7 | 4.3 | 0.00 | 0.00 | 0.00 | 98 | 1019.7 |
| 20260509132055 | 66 | 162 | 1.7 | 4.3 | 0.00 | 0.00 | 0.00 | 98 | 1019.7 |
| 20260509131550 | 66 | 179 | 0.9 | 2.6 | 0.00 | 0.00 | 0.00 | 98 | 1020.0 |
| 20260509131048 | 66 | 196 | 1.7 | 1.7 | 0.00 | 0.00 | 0.00 | 98 | 1019.8 |
| 20260509130543 | 66 | 174 | 2.6 | 4.3 | 0.00 | 0.00 | 0.00 | 98 | 1019.6 |
| 20260509130040 | 66 | 177 | 0.9 | 4.3 | 0.00 | 0.00 | 0.00 | 99 | 1019.8 |
| 20260509125537 | 66 | 191 | 2.6 | 5.2 | 0.00 | 0.00 | 0.00 | 99 | 1019.6 |
| 20260509125033 | 66 | 193 | 1.7 | 2.6 | 0.00 | 0.00 | 0.00 | 99 | 1019.8 |
| 20260509124530 | 65 | 171 | 3.5 | 4.3 | 0.00 | 0.00 | 0.00 | 99 | 1019.6 |
| 20260509124027 | 65 | 180 | 3.5 | 5.2 | 0.00 | 0.00 | 0.00 | 99 | 1019.8 |
| 20260509123525 | 65 | 172 | 2.6 | 4.3 | 0.00 | 0.00 | 0.00 | 99 | 1019.7 |
| 20260509123016 | 65 | 173 | 1.7 | 4.3 | 0.00 | 0.00 | 0.00 | 99 | 1019.9 |
| 20260509122513 | 65 | 160 | 1.7 | 1.7 | 0.00 | 0.00 | 0.00 | 99 | 1019.7 |
| 20260509122009 | 65 | 215 | 1.7 | 1.7 | 0.00 | 0.00 | 0.00 | 99 | 1019.9 |
| 20260509121505 | 64 | 165 | 0.0 | 0.9 | 0.00 | 0.00 | 0.00 | 99 | 1019.9 |
| 20260509121004 | 64 | 211 | 1.7 | 1.7 | 0.00 | 0.00 | 0.00 | 99 | 1019.7 |
| 20260509120501 | 64 | 170 | 0.9 | 0.9 | 0.00 | 0.00 | 0.00 | 99 | 1019.6 |